TimeCST,TemperatureF,Dew PointF,Humidity,Sea Level PressureIn,VisibilityMPH,Wind Direction,Wind SpeedMPH,Gust SpeedMPH,PrecipitationIn,Events,Conditions,WindDirDegrees,DateUTC
12:09 AM,9.1,6.4,89,30.09,10.0,NW,17.3,-,N/A,,Clear,310,2012-12-21 06:09:00
12:28 AM,9.1,6.4,89,30.10,10.0,WNW,17.3,-,N/A,,Clear,300,2012-12-21 06:28:00
12:49 AM,9.1,6.4,89,30.10,10.0,NW,16.1,-,N/A,,Clear,310,2012-12-21 06:49:00
1:08 AM,9.1,6.4,89,30.11,10.0,WNW,13.8,-,N/A,,Clear,300,2012-12-21 07:08:00
1:29 AM,9.1,6.4,89,30.12,10.0,WNW,11.5,-,N/A,,Clear,300,2012-12-21 07:29:00
1:49 AM,9.1,6.4,89,30.13,10.0,WNW,13.8,-,N/A,,Clear,300,2012-12-21 07:49:00
2:03 AM,9.1,6.4,89,30.13,10.0,NW,12.7,-,N/A,,Clear,310,2012-12-21 08:03:00
2:30 AM,8.6,5.0,85,30.14,10.0,NW,12.7,-,N/A,,Clear,310,2012-12-21 08:30:00
2:50 AM,8.6,5.0,85,30.15,10.0,NW,13.8,18.4,N/A,,Clear,320,2012-12-21 08:50:00
3:10 AM,8.6,5.0,85,30.15,10.0,NW,11.5,-,N/A,,Clear,310,2012-12-21 09:10:00
3:27 AM,7.5,4.6,88,30.15,10.0,NW,11.5,-,N/A,,Clear,310,2012-12-21 09:27:00
3:29 AM,7.7,5.0,89,30.15,10.0,NW,10.4,-,N/A,,Clear,310,2012-12-21 09:29:00
3:48 AM,6.6,3.7,88,30.15,10.0,NW,10.4,-,N/A,,Clear,310,2012-12-21 09:48:00
4:09 AM,6.6,3.7,88,30.16,10.0,WNW,10.4,-,N/A,,Clear,300,2012-12-21 10:09:00
4:29 AM,6.6,3.7,88,30.16,10.0,NW,10.4,-,N/A,,Clear,310,2012-12-21 10:29:00
4:48 AM,6.6,3.7,88,30.18,10.0,WNW,11.5,-,N/A,,Clear,300,2012-12-21 10:48:00
5:09 AM,6.6,3.7,88,30.18,10.0,WNW,10.4,-,N/A,,Clear,300,2012-12-21 11:09:00
5:29 AM,5.4,2.3,87,30.19,10.0,WNW,10.4,-,N/A,,Clear,290,2012-12-21 11:29:00
5:48 AM,4.5,1.8,89,30.21,10.0,West,9.2,-,N/A,,Clear,280,2012-12-21 11:48:00
5:58 AM,3.0,-0.0,87,30.21,10.0,WNW,8.1,-,N/A,,Clear,290,2012-12-21 11:58:00
6:30 AM,1.4,-2.2,85,30.21,10.0,WNW,6.9,-,N/A,,Clear,300,2012-12-21 12:30:00
6:50 AM,1.4,-2.2,85,30.22,10.0,West,6.9,-,N/A,,Clear,270,2012-12-21 12:50:00
7:10 AM,1.4,-2.2,85,30.23,10.0,West,6.9,-,N/A,,Clear,280,2012-12-21 13:10:00
7:30 AM,1.4,-2.2,85,30.24,10.0,WNW,6.9,-,N/A,,Clear,290,2012-12-21 13:30:00
7:39 AM,0.5,-2.2,88,30.24,10.0,West,8.1,-,N/A,,Clear,280,2012-12-21 13:39:00
7:49 AM,0.9,-1.8,88,30.25,10.0,West,6.9,-,N/A,,Clear,270,2012-12-21 13:49:00
8:09 AM,0.7,-2.0,88,30.24,10.0,West,6.9,-,N/A,,Clear,280,2012-12-21 14:09:00
8:22 AM,1.0,-1.7,88,30.25,10.0,West,8.1,-,N/A,,Clear,280,2012-12-21 14:22:00
8:50 AM,1.4,-2.2,85,30.24,10.0,NW,5.8,-,N/A,,Clear,310,2012-12-21 14:50:00
9:10 AM,3.2,-0.4,85,30.25,10.0,West,8.1,-,N/A,,Clear,280,2012-12-21 15:10:00
9:30 AM,3.2,-0.4,85,30.26,10.0,West,5.8,-,N/A,,Clear,270,2012-12-21 15:30:00
9:50 AM,5.0,1.4,85,30.26,10.0,WNW,6.9,-,N/A,,Clear,300,2012-12-21 15:50:00
10:05 AM,5.4,1.6,84,30.27,10.0,West,6.9,-,N/A,,Clear,280,2012-12-21 16:05:00
10:10 AM,6.6,2.8,84,30.27,10.0,WNW,6.9,-,N/A,,Clear,290,2012-12-21 16:10:00
10:28 AM,6.6,2.3,82,30.27,10.0,West,4.6,-,N/A,,Clear,280,2012-12-21 16:28:00
10:47 AM,6.6,2.3,82,30.27,10.0,WNW,5.8,-,N/A,,Clear,290,2012-12-21 16:47:00
11:09 AM,9.1,4.6,82,30.26,10.0,WNW,5.8,-,N/A,,Clear,290,2012-12-21 17:09:00
11:29 AM,9.1,4.5,81,30.25,10.0,WNW,5.8,-,N/A,,Clear,290,2012-12-21 17:29:00
11:49 AM,9.1,4.5,81,30.25,10.0,WNW,4.6,-,N/A,,Clear,290,2012-12-21 17:49:00
12:09 PM,10.2,5.4,81,30.24,10.0,West,6.9,-,N/A,,Clear,270,2012-12-21 18:09:00
12:28 PM,10.8,5.9,81,30.24,10.0,West,6.9,-,N/A,,Clear,260,2012-12-21 18:28:00
12:49 PM,11.1,6.4,81,30.24,10.0,West,6.9,-,N/A,,Clear,260,2012-12-21 18:49:00
1:09 PM,11.7,6.8,81,30.23,10.0,West,3.5,-,N/A,,Clear,260,2012-12-21 19:09:00
1:28 PM,11.7,6.8,81,30.22,10.0,West,6.9,-,N/A,,Clear,260,2012-12-21 19:28:00
1:49 PM,11.7,7.3,83,30.22,10.0,West,4.6,-,N/A,,Clear,260,2012-12-21 19:49:00
2:09 PM,11.7,6.8,81,30.23,10.0,West,4.6,-,N/A,,Clear,260,2012-12-21 20:09:00
2:29 PM,11.7,6.8,81,30.23,10.0,WSW,4.6,-,N/A,,Clear,250,2012-12-21 20:29:00
2:49 PM,11.7,7.2,82,30.23,10.0,WSW,4.6,-,N/A,,Clear,240,2012-12-21 20:49:00
2:51 PM,11.7,7.2,82,30.23,10.0,WSW,4.6,-,N/A,,Clear,240,2012-12-21 20:51:00
3:30 PM,12.2,6.8,79,30.22,10.0,West,4.6,-,N/A,,Clear,260,2012-12-21 21:30:00
3:50 PM,10.4,6.8,85,30.23,10.0,WSW,4.6,-,N/A,,Clear,240,2012-12-21 21:50:00
4:10 PM,8.6,5.0,85,30.23,10.0,West,6.9,-,N/A,,Clear,260,2012-12-21 22:10:00
4:30 PM,8.6,5.0,85,30.23,10.0,Calm,Calm,-,N/A,,Clear,0,2012-12-21 22:30:00
4:50 PM,8.6,5.0,85,30.23,10.0,West,3.5,-,N/A,,Clear,260,2012-12-21 22:50:00
5:10 PM,6.8,3.2,85,30.23,10.0,WSW,3.5,-,N/A,,Clear,240,2012-12-21 23:10:00
5:30 PM,6.8,3.2,85,30.22,10.0,Calm,Calm,-,N/A,,Clear,0,2012-12-21 23:30:00
5:50 PM,6.8,3.2,85,30.22,10.0,Calm,Calm,-,N/A,,Clear,0,2012-12-21 23:50:00
6:10 PM,6.8,3.2,85,30.21,10.0,Calm,Calm,-,N/A,,Clear,0,2012-12-22 00:10:00
6:30 PM,6.8,3.2,85,30.21,10.0,Calm,Calm,-,N/A,,Clear,0,2012-12-22 00:30:00
6:50 PM,6.8,3.2,85,30.21,10.0,Calm,Calm,-,N/A,,Clear,0,2012-12-22 00:50:00
7:10 PM,6.8,3.2,85,30.21,10.0,Calm,Calm,-,N/A,,Clear,0,2012-12-22 01:10:00
7:30 PM,5.0,3.2,92,30.21,10.0,Calm,Calm,-,N/A,,Clear,0,2012-12-22 01:30:00
7:50 PM,3.2,1.4,92,30.20,10.0,ESE,3.5,-,N/A,,Clear,120,2012-12-22 01:50:00
8:10 PM,3.2,1.4,92,30.19,10.0,Calm,Calm,-,N/A,,Clear,0,2012-12-22 02:10:00
8:30 PM,3.2,-0.4,85,30.19,10.0,South,3.5,-,N/A,,Clear,170,2012-12-22 02:30:00
8:50 PM,3.2,1.4,92,30.18,10.0,Calm,Calm,-,N/A,,Clear,0,2012-12-22 02:50:00
9:08 PM,3.2,1.0,91,30.18,10.0,SSE,3.5,-,N/A,,Clear,160,2012-12-22 03:08:00
9:10 PM,3.2,1.0,91,30.18,10.0,Calm,Calm,-,N/A,,Clear,0,2012-12-22 03:10:00
9:29 PM,3.2,0.7,89,30.18,10.0,SE,3.5,-,N/A,,Clear,130,2012-12-22 03:29:00
9:48 PM,4.1,1.8,90,30.17,10.0,East,4.6,-,N/A,,Clear,100,2012-12-22 03:48:00
10:08 PM,4.1,1.4,89,30.17,10.0,ESE,4.6,-,N/A,,Clear,110,2012-12-22 04:08:00
10:29 PM,4.1,1.4,89,30.17,10.0,East,4.6,-,N/A,,Clear,100,2012-12-22 04:29:00
10:49 PM,5.2,2.8,90,30.16,10.0,ESE,5.8,-,N/A,,Clear,120,2012-12-22 04:49:00
11:09 PM,4.3,2.1,91,30.16,10.0,ESE,5.8,-,N/A,,Clear,110,2012-12-22 05:09:00
11:28 PM,6.6,4.1,89,30.15,10.0,ESE,5.8,-,N/A,,Clear,120,2012-12-22 05:28:00
11:49 PM,6.6,4.1,89,30.15,10.0,SE,4.6,-,N/A,,Clear,130,2012-12-22 05:49:00